Simultaneous Nadir Overpasses (SNOs) Predictions

Prediction of SNOs between GOES-16 and NOAA-20 Satellite Orbit:

Table of predicted SNOs for the next 14.0 days since TLE Epoch: 11/6/2021
Index Date Time (GOES-16) GOES-16 Lat,Lon NOAA-20 Lat,Lon Distance(km) Time Diff (sec)
1 11/06/2021 18:32:48 -0.02, -75.20 -0.50, -77.34 244.05 80
2 11/07/2021 18:14:02 -0.01, -75.20 0.50, -72.81 272.22 80
3 11/09/2021 06:38:30 0.01, -75.19 0.65, -78.08 328.48 80
4 11/10/2021 06:17:04 0.01, -75.19 -0.35, -73.54 188.03 80
5 11/11/2021 18:41:39 -0.01, -75.20 -0.83, -78.84 415.26 80
6 11/12/2021 18:20:14 -0.00, -75.20 0.18, -74.30 102.00 80
7 11/14/2021 06:44:41 0.01, -75.21 0.97, -79.57 496.67 80
8 11/15/2021 06:23:16 0.01, -75.22 -0.04, -75.04 21.09 80
9 11/17/2021 18:29:06 -0.02, -75.26 -0.13, -75.80 62.17 80
10 11/18/2021 18:07:40 -0.02, -75.27 0.88, -71.27 456.16 80
